| time (UTC) | temp F | wind direction | speed MPH | gust MPH | rain 1hr in | rain 24hr in | rain mn in | humidity % | barometer mb |
| 20260831010516 | 65 | 303 | 0.0 | 0.0 | 0.00 | 0.00 | 0.00 | 65 | 1018.4 |
| 20260831005516 | 65 | 303 | 0.0 | 0.0 | 0.00 | 0.00 | 0.00 | 65 | 1018.6 |
| 20260831004537 | 65 | 303 | 0.0 | 0.0 | 0.00 | 0.00 | 0.00 | 64 | 1018.6 |
| 20260831003516 | 65 | 293 | 0.0 | 1.0 | 0.00 | 0.00 | 0.00 | 66 | 1018.6 |
| 20260831002516 | 65 | 293 | 1.0 | 4.0 | 0.00 | 0.00 | 0.00 | 63 | 1018.7 |
| 20260831001516 | 66 | 303 | 0.0 | 0.0 | 0.00 | 0.00 | 0.00 | 64 | 1018.7 |
| 20260831000516 | 66 | 303 | 0.0 | 0.0 | 0.00 | 0.00 | 0.00 | 61 | 1018.7 |
| 20260830235517 | 66 | 293 | 0.0 | 3.0 | 0.00 | 0.00 | 0.00 | 61 | 1018.6 |
| 20260830234516 | 67 | 293 | 0.0 | 1.0 | 0.00 | 0.00 | 0.00 | 61 | 1018.7 |
| 20260830233556 | 67 | 293 | 0.0 | 3.0 | 0.00 | 0.00 | 0.00 | 60 | 1018.7 |
| 20260830232517 | 67 | 293 | 1.0 | 4.0 | 0.00 | 0.00 | 0.00 | 61 | 1018.8 |
| 20260830231516 | 67 | 293 | 1.0 | 4.0 | 0.00 | 0.00 | 0.00 | 61 | 1018.8 |
| 20260830230517 | 68 | 293 | 0.0 | 1.0 | 0.00 | 0.00 | 0.00 | 61 | 1018.9 |
| 20260830225536 | 68 | 293 | 0.0 | 1.0 | 0.00 | 0.00 | 0.00 | 63 | 1018.8 |
| 20260830224516 | 68 | 303 | 0.0 | 0.0 | 0.00 | 0.00 | 0.00 | 58 | 1018.8 |
| 20260830223516 | 68 | 293 | 1.0 | 4.0 | 0.00 | 0.00 | 0.00 | 59 | 1018.9 |
| 20260830222516 | 67 | 293 | 1.0 | 4.0 | 0.00 | 0.00 | 0.00 | 61 | 1019.1 |
| 20260830221516 | 67 | 293 | 1.0 | 4.0 | 0.00 | 0.00 | 0.00 | 59 | 1019.1 |
| 20260830220516 | 68 | 315 | 1.0 | 5.0 | 0.00 | 0.00 | 0.00 | 59 | 1019.2 |
| 20260830215516 | 68 | 315 | 1.0 | 5.0 | 0.00 | 0.00 | 0.00 | 58 | 1019.3 |
| 20260830214515 | 69 | 315 | 1.0 | 6.0 | 0.00 | 0.00 | 0.00 | 56 | 1019.3 |
| 20260830213536 | 69 | 315 | 1.0 | 6.0 | 0.00 | 0.00 | 0.00 | 57 | 1019.2 |
| 20260830212516 | 69 | 315 | 1.0 | 6.0 | 0.00 | 0.00 | 0.00 | 58 | 1019.2 |
| 20260830211515 | 69 | 315 | 1.0 | 5.0 | 0.00 | 0.00 | 0.00 | 58 | 1019.1 |
| 20260830210515 | 69 | 338 | 1.0 | 5.0 | 0.00 | 0.00 | 0.00 | 58 | 1019.0 |
| 20260830205516 | 69 | 338 | 0.0 | 3.0 | 0.00 | 0.00 | 0.00 | 60 | 1019.0 |
| 20260830204536 | 68 | 338 | 1.0 | 4.0 | 0.00 | 0.00 | 0.00 | 60 | 1019.0 |
| 20260830203515 | 68 | 338 | 1.0 | 4.0 | 0.00 | 0.00 | 0.00 | 59 | 1019.2 |
| 20260830202516 | 69 | 338 | 2.0 | 6.0 | 0.00 | 0.00 | 0.00 | 59 | 1019.1 |
| 20260830201516 | 68 | 315 | 1.0 | 4.0 | 0.00 | 0.00 | 0.00 | 60 | 1019.1 |
| 20260830200535 | 68 | 315 | 0.0 | 3.0 | 0.00 | 0.00 | 0.00 | 62 | 1019.2 |
| 20260830195536 | 68 | 315 | 1.0 | 4.0 | 0.00 | 0.00 | 0.00 | 63 | 1019.2 |
| 20260830194515 | 68 | 315 | 1.0 | 5.0 | 0.00 | 0.00 | 0.00 | 61 | 1019.2 |
| 20260830193515 | 68 | 315 | 1.0 | 5.0 | 0.00 | 0.00 | 0.00 | 60 | 1019.2 |
| 20260830192515 | 67 | 315 | 1.0 | 5.0 | 0.00 | 0.00 | 0.00 | 62 | 1019.3 |
| 20260830191516 | 66 | 315 | 1.0 | 5.0 | 0.00 | 0.00 | 0.00 | 65 | 1019.3 |
| 20260830190515 | 66 | 315 | 1.0 | 5.0 | 0.00 | 0.00 | 0.00 | 63 | 1019.4 |
| 20260830185515 | 66 | 315 | 0.0 | 7.0 | 0.00 | 0.00 | 0.00 | 62 | 1019.6 |
| 20260830184515 | 66 | 293 | 2.0 | 6.0 | 0.00 | 0.00 | 0.00 | 63 | 1019.6 |
| 20260830183515 | 66 | 293 | 0.0 | 4.0 | 0.00 | 0.00 | 0.00 | 63 | 1019.6 |
| 20260830182515 | 66 | 293 | 0.0 | 3.0 | 0.00 | 0.00 | 0.00 | 61 | 1019.6 |
| 20260830181515 | 65 | 293 | 0.0 | 3.0 | 0.00 | 0.00 | 0.00 | 61 | 1019.6 |
| 20260830180517 | 65 | 290 | 0.0 | 0.0 | 0.00 | 0.00 | 0.00 | 67 | 1019.6 |
| 20260830175517 | 65 | 293 | 0.0 | 5.0 | 0.00 | 0.00 | 0.00 | 69 | 1019.4 |
| 20260830174557 | 64 | 293 | 1.0 | 4.0 | 0.00 | 0.00 | 0.00 | 70 | 1019.4 |
| 20260830173517 | 63 | 293 | 0.0 | 2.0 | 0.00 | 0.00 | 0.00 | 73 | 1019.4 |
| 20260830172557 | 63 | 290 | 0.0 | 0.0 | 0.00 | 0.00 | 0.00 | 74 | 1019.4 |
| 20260830171637 | 62 | 293 | 0.0 | 1.0 | 0.00 | 0.00 | 0.00 | 74 | 1019.4 |
| 20260830170517 | 61 | 293 | 1.0 | 4.0 | 0.00 | 0.00 | 0.00 | 74 | 1019.5 |
| 20260830165517 | 60 | 293 | 0.0 | 2.0 | 0.00 | 0.00 | 0.00 | 81 | 1019.6 |
| 20260830164517 | 59 | 290 | 0.0 | 0.0 | 0.00 | 0.00 | 0.00 | 83 | 1019.6 |
| 20260830163517 | 58 | 293 | 0.0 | 4.0 | 0.00 | 0.00 | 0.00 | 85 | 1019.7 |
| 20260830162517 | 58 | 293 | 0.0 | 3.0 | 0.00 | 0.00 | 0.00 | 87 | 1019.6 |
| 20260830161517 | 57 | 293 | 0.0 | 1.0 | 0.00 | 0.00 | 0.00 | 90 | 1019.6 |
| 20260830160517 | 57 | 293 | 0.0 | 2.0 | 0.00 | 0.00 | 0.00 | 91 | 1019.7 |
| 20260830155517 | 56 | 290 | 0.0 | 0.0 | 0.00 | 0.00 | 0.00 | 92 | 1019.6 |
| 20260830154517 | 56 | 290 | 0.0 | 0.0 | 0.00 | 0.00 | 0.00 | 93 | 1019.6 |
| 20260830153517 | 56 | 290 | 0.0 | 0.0 | 0.00 | 0.00 | 0.00 | 94 | 1019.7 |
| 20260830152517 | 56 | 290 | 0.0 | 0.0 | 0.00 | 0.00 | 0.00 | 96 | 1019.7 |
| 20260830151517 | 55 | 290 | 0.0 | 0.0 | 0.00 | 0.00 | 0.00 | 96 | 1019.7 |
| 20260830150537 | 55 | 290 | 0.0 | 0.0 | 0.00 | 0.00 | 0.00 | 96 | 1019.7 |
| 20260830145537 | 55 | 290 | 0.0 | 0.0 | 0.00 | 0.00 | 0.00 | 96 | 1019.6 |
| 20260830144517 | 54 | 290 | 0.0 | 0.0 | 0.00 | 0.00 | 0.00 | 96 | 1019.6 |
| 20260830143517 | 54 | 290 | 0.0 | 0.0 | 0.00 | 0.00 | 0.00 | 96 | 1019.5 |
| 20260830142517 | 54 | 290 | 0.0 | 0.0 | 0.00 | 0.00 | 0.00 | 96 | 1019.3 |
| 20260830141516 | 53 | 290 | 0.0 | 0.0 | 0.00 | 0.00 | 0.00 | 96 | 1019.4 |
| 20260830140516 | 53 | 290 | 0.0 | 0.0 | 0.00 | 0.00 | 0.00 | 96 | 1019.4 |
| 20260830135516 | 53 | 293 | 0.0 | 1.0 | 0.00 | 0.00 | 0.00 | 96 | 1019.2 |
| 20260830134516 | 53 | 290 | 0.0 | 0.0 | 0.00 | 0.00 | 0.00 | 95 | 1019.2 |
| 20260830133516 | 53 | 290 | 0.0 | 0.0 | 0.00 | 0.00 | 0.00 | 95 | 1019.1 |
| 20260830132517 | 53 | 290 | 0.0 | 0.0 | 0.00 | 0.00 | 0.00 | 95 | 1018.9 |
| 20260830131517 | 53 | 290 | 0.0 | 0.0 | 0.00 | 0.00 | 0.00 | 95 | 1019.0 |
| 20260830130516 | 53 | 290 | 0.0 | 0.0 | 0.00 | 0.00 | 0.00 | 95 | 1019.0 |
| 20260830125517 | 53 | 290 | 0.0 | 0.0 | 0.00 | 0.00 | 0.00 | 95 | 1019.1 |
| 20260830124517 | 53 | 293 | 0.0 | 2.0 | 0.00 | 0.00 | 0.00 | 96 | 1019.1 |
| 20260830123516 | 54 | 290 | 0.0 | 0.0 | 0.00 | 0.00 | 0.00 | 96 | 1019.1 |
| 20260830122516 | 54 | 290 | 0.0 | 0.0 | 0.00 | 0.00 | 0.00 | 96 | 1019.2 |
| 20260830121516 | 54 | 290 | 0.0 | 0.0 | 0.00 | 0.00 | 0.00 | 96 | 1019.2 |
| 20260830120516 | 54 | 290 | 0.0 | 0.0 | 0.00 | 0.00 | 0.00 | 96 | 1019.2 |
| 20260830115516 | 54 | 290 | 0.0 | 0.0 | 0.00 | 0.00 | 0.00 | 96 | 1019.3 |
| 20260830114516 | 53 | 290 | 0.0 | 0.0 | 0.00 | 0.00 | 0.00 | 96 | 1019.3 |
| 20260830113516 | 53 | 290 | 0.0 | 0.0 | 0.00 | 0.00 | 0.00 | 96 | 1019.3 |
| 20260830112516 | 53 | 290 | 0.0 | 0.0 | 0.00 | 0.00 | 0.00 | 96 | 1019.3 |
| 20260830111536 | 53 | 290 | 0.0 | 0.0 | 0.00 | 0.00 | 0.00 | 96 | 1019.3 |
| 20260830110516 | 53 | 290 | 0.0 | 0.0 | 0.00 | 0.00 | 0.00 | 96 | 1019.4 |
| 20260830105516 | 53 | 290 | 0.0 | 0.0 | 0.00 | 0.00 | 0.00 | 96 | 1019.2 |
| 20260830104516 | 53 | 290 | 0.0 | 0.0 | 0.00 | 0.00 | 0.00 | 96 | 1019.2 |
| 20260830103536 | 53 | 290 | 0.0 | 0.0 | 0.00 | 0.00 | 0.00 | 96 | 1019.0 |
| 20260830102516 | 53 | 290 | 0.0 | 0.0 | 0.00 | 0.00 | 0.00 | 96 | 1018.9 |
| 20260830101516 | 53 | 290 | 0.0 | 0.0 | 0.00 | 0.01 | 0.00 | 96 | 1018.9 |
| 20260830100516 | 53 | 290 | 0.0 | 0.0 | 0.00 | 0.01 | 0.00 | 96 | 1019.0 |
| 20260830095516 | 53 | 290 | 0.0 | 0.0 | 0.00 | 0.01 | 0.00 | 96 | 1019.0 |
| 20260830094516 | 53 | 290 | 0.0 | 0.0 | 0.00 | 0.01 | 0.00 | 96 | 1019.0 |
| 20260830093516 | 53 | 290 | 0.0 | 0.0 | 0.00 | 0.01 | 0.00 | 96 | 1019.1 |
| 20260830092516 | 53 | 290 | 0.0 | 0.0 | 0.00 | 0.02 | 0.00 | 96 | 1019.0 |
| 20260830091516 | 53 | 290 | 0.0 | 0.0 | 0.00 | 0.04 | 0.00 | 96 | 1019.0 |
| 20260830090516 | 53 | 290 | 0.0 | 0.0 | 0.00 | 0.06 | 0.00 | 96 | 1019.1 |
| 20260830085516 | 53 | 290 | 0.0 | 0.0 | 0.00 | 0.07 | 0.00 | 96 | 1019.1 |
| 20260830084516 | 52 | 290 | 0.0 | 0.0 | 0.00 | 0.08 | 0.00 | 96 | 1019.0 |
| 20260830083536 | 52 | 290 | 0.0 | 0.0 | 0.00 | 0.08 | 0.00 | 96 | 1019.0 |
| 20260830082536 | 52 | 290 | 0.0 | 0.0 | 0.00 | 0.08 | 0.00 | 96 | 1018.9 |
| 20260830081516 | 52 | 290 | 0.0 | 0.0 | 0.00 | 0.08 | 0.00 | 96 | 1018.9 |
| 20260830080516 | 51 | 290 | 0.0 | 0.0 | 0.00 | 0.08 | 0.00 | 96 | 1018.7 |
| 20260830075536 | 51 | 290 | 0.0 | 0.0 | 0.00 | 0.08 | 0.00 | 95 | 1018.7 |
| 20260830074516 | 51 | 290 | 0.0 | 0.0 | 0.00 | 0.12 | 0.00 | 95 | 1018.7 |
| 20260830073516 | 51 | 290 | 0.0 | 0.0 | 0.00 | 0.16 | 0.00 | 95 | 1018.7 |
| 20260830072516 | 51 | 290 | 0.0 | 0.0 | 0.00 | 0.20 | 0.00 | 95 | 1018.6 |
| 20260830071521 | 51 | 290 | 0.0 | 0.0 | 0.00 | 0.24 | 0.00 | 94 | 1018.6 |
| 20260830070516 | 51 | 290 | 0.0 | 0.0 | 0.00 | 0.27 | 0.00 | 94 | 1018.5 |
| 20260830065515 | 51 | 290 | 0.0 | 0.0 | 0.00 | 0.27 | 0.27 | 94 | 1018.5 |
| 20260830064516 | 51 | 290 | 0.0 | 0.0 | 0.00 | 0.28 | 0.27 | 93 | 1018.5 |
| 20260830063515 | 51 | 290 | 0.0 | 0.0 | 0.00 | 0.28 | 0.27 | 93 | 1018.5 |
| 20260830062515 | 51 | 290 | 0.0 | 0.0 | 0.00 | 0.28 | 0.27 | 93 | 1018.5 |
| 20260830061516 | 51 | 290 | 0.0 | 0.0 | 0.00 | 0.28 | 0.27 | 92 | 1018.5 |
| 20260830060516 | 51 | 290 | 0.0 | 0.0 | 0.00 | 0.29 | 0.27 | 92 | 1018.6 |
| 20260830055516 | 52 | 290 | 0.0 | 0.0 | 0.00 | 0.29 | 0.27 | 92 | 1018.6 |
| 20260830054515 | 52 | 290 | 0.0 | 0.0 | 0.00 | 0.29 | 0.27 | 91 | 1018.6 |
| 20260830053516 | 52 | 293 | 0.0 | 1.0 | 0.00 | 0.29 | 0.27 | 91 | 1018.9 |
| 20260830052515 | 53 | 290 | 0.0 | 0.0 | 0.00 | 0.30 | 0.27 | 91 | 1019.0 |
| 20260830051515 | 53 | 290 | 0.0 | 0.0 | 0.00 | 0.31 | 0.27 | 90 | 1019.0 |
| 20260830050537 | 53 | 290 | 0.0 | 0.0 | 0.00 | 0.31 | 0.27 | 90 | 1019.0 |
| 20260830045517 | 53 | 293 | 0.0 | 3.0 | 0.00 | 0.34 | 0.27 | 89 | 1019.0 |
| 20260830044517 | 54 | 293 | 1.0 | 4.0 | 0.00 | 0.35 | 0.27 | 89 | 1019.0 |
| 20260830043517 | 54 | 290 | 0.0 | 0.0 | 0.00 | 0.36 | 0.27 | 88 | 1018.9 |
| 20260830042517 | 54 | 290 | 0.0 | 0.0 | 0.00 | 0.36 | 0.27 | 87 | 1018.6 |
| 20260830041517 | 55 | 290 | 0.0 | 0.0 | 0.00 | 0.36 | 0.27 | 86 | 1018.6 |
| 20260830040517 | 55 | 290 | 0.0 | 0.0 | 0.00 | 0.36 | 0.27 | 85 | 1018.5 |
| 20260830035517 | 56 | 290 | 0.0 | 0.0 | 0.00 | 0.38 | 0.27 | 84 | 1018.4 |
| 20260830034537 | 56 | 293 | 0.0 | 2.0 | 0.00 | 0.39 | 0.27 | 83 | 1018.4 |
| 20260830033537 | 57 | 290 | 0.0 | 0.0 | 0.00 | 0.39 | 0.27 | 82 | 1018.2 |
| 20260830032517 | 57 | 290 | 0.0 | 0.0 | 0.00 | 0.39 | 0.27 | 81 | 1018.1 |
| 20260830031517 | 58 | 290 | 0.0 | 0.0 | 0.00 | 0.39 | 0.27 | 79 | 1018.1 |
| 20260830030517 | 58 | 293 | 0.0 | 3.0 | 0.00 | 0.39 | 0.27 | 77 | 1018.0 |
| 20260830025517 | 59 | 293 | 2.0 | 6.0 | 0.00 | 0.39 | 0.27 | 76 | 1017.9 |
| 20260830024537 | 59 | 293 | 0.0 | 5.0 | 0.00 | 0.39 | 0.27 | 75 | 1017.9 |
| 20260830023537 | 60 | 293 | 0.0 | 4.0 | 0.00 | 0.39 | 0.27 | 74 | 1017.9 |
| 20260830022517 | 60 | 293 | 2.0 | 6.0 | 0.00 | 0.39 | 0.27 | 73 | 1017.8 |
| 20260830021517 | 61 | 293 | 2.0 | 9.0 | 0.00 | 0.39 | 0.27 | 72 | 1017.8 |
| 20260830020517 | 62 | 293 | 0.0 | 1.0 | 0.00 | 0.39 | 0.27 | 72 | 1017.6 |
| 20260830015517 | 63 | 293 | 1.0 | 6.0 | 0.00 | 0.39 | 0.27 | 71 | 1017.5 |
| 20260830014517 | 63 | 293 | 0.0 | 2.0 | 0.00 | 0.39 | 0.27 | 71 | 1017.5 |
| 20260830013516 | 64 | 293 | 0.0 | 2.0 | 0.00 | 0.39 | 0.27 | 70 | 1017.3 |
| 20260830012517 | 64 | 293 | 0.0 | 1.0 | 0.00 | 0.39 | 0.27 | 70 | 1017.2 |
| 20260830011517 | 65 | 293 | 0.0 | 1.0 | 0.00 | 0.39 | 0.27 | 70 | 1017.2 |